Location: Nied?wied?
(53.3665°N, 14.8184°E)
Time: 21:27:30
(UTC+00:00)

Cosmos 1339 Rocket - Pass Details

Date: 03 March 2021
Orbit: 942 x 1005 km, 82.9° (Epoch: 12 April)

Event Time Altitude Azimuth Distance (km) Brightness Sun altitude
Rises 18:16:13 0° 349° (N) 3,647 7.8 -14.7°
Reaches altitude 10° 18:18:43 10° 352° (N) 2,705 7.0 -15.1°
Maximum altitude 18:24:55 75° 78° (ENE) 1,008 4.4 -16.0°
Drops below altitude 10° 18:31:10 10° 164° (SSE) 2,730 6.6 -16.9°
Sets 18:33:42 0° 166° (SSE) 3,683 7.3 -17.3°
